Погода в Маме

Погода в Маме : погода сейчас, прогноз погоды и архив. Всё, что Вы хотите узнать о погоде в Маме!

Поиск расширенной информации на нашем сайте:

Другие новости

Новости СМИ2

Главная страница сайта

Новости сайта

02.10.2013

Напоминаем, что на нашем новом сайте вы можете получить высокодетализированные прогнозы погоды по пунктам России, СНГ и мира (включающие важные для авиации метеовеличины, такие как направление и скорость ветра, видимость, явления погоды, количество и форма облачности, нижняя и верхняя граница облачности), а также ознакомиться с разнообразными материалами по авиационной метеорологии и подборкой полезных ссылок на эту тему.

Сайт Метеоцентр.Азия посвящён разработке технологий оптимизации авиаметеорологического обслуживания, включая проектирование и перспективное создание нескольких автоматизированных авиаметеорологических систем:
- система выпуска высокодетальных прогностических карт явлений погоды для нижнего воздушного пространства по России и ближнему зарубежью;
- система верификации прогнозов TAF (выпускаемых синоптиками официальных АМСГ РФ и ближнего зарубежья) и AUTOTAF (выпускаемых сайтом Метеоцентр.Азия) - выявление ошибок, онлайн-сопоставление с фактической погодой METAR, автоматическое внесение коррективов в прогнозы при резком отклонении фактической погоды от прогноза, подсчёт оправдываемости прогнозов по элементам и в целом;
- система обработки, анализа и отображения авиаметеорологической информации для применения провайдерами метеорологической информации.

Рекомендуем: Подбор авто.

Погода в Маме - сегодня

Время (UTC), дата Ветер
(°,м/с) 
Видим.   Явления Облачность Т
(°С)
Тd
(°С)
f(%) Тe
(°С)
Pmin
(гПа)
dP
(гПа)
Po
(мм)
O2
(г/м3)
Тmin Tmax R s Состояние
почвы
06 24.04.17 290 (З) 20000 м    ясно 
+9 -4 40 +8  1028.3  -1.3  751  293           
09 24.04.17 280 (З) 20000 м    ясно 
+9.5 -7 30 +11  1027.7  -0.6  750  293           
12 24.04.17 тихо ()   20000 м    ясно 
+2.3 -4.8 59 +2  1028.4  750  300    +15.5       
15 24.04.17 160 (Ю) 20000 м    ясно 
-2.8 -5.8 80 -2  1030.6  1.6  751  307           
18 24.04.17 тихо ()   20000 м    ясно 
-4.8 -6.8 86 -5  1031.7  0.9  752  309           
21 24.04.17 тихо ()   20000 м    4/0 верхняя 
[Ci fib]
-6.1 -7.6 89 -6  1032.2  0.3  752  311           
00 25.04.17 140 (ЮВ) 20000 м    10/0 верхняя 
[Ci fib]
-1.8 -7.9 63 -1  1032.4  0.6  753  306  -7.4      мокрый или
старый снег
10-40% 
03 25.04.17 120 (ЮВ) 20000 м    8/0 верхняя 
[Ci fib]
+5.9 -7.6 37 +6  1029.6  -1.9  751  297           
06 25.04.17 210 (ЮЗ) 20000 м    8/0 верхняя 
[Ci fib]
+11.3 -8.8 24 +12  1026.7  -2.3  750  291           
09 25.04.17 тихо ()   20000 м    6/0 верхняя 
[Ci fib]
+12.9 -7.8 23 +13  1024.5  -2  748  289           
12 25.04.17 тихо ()   20000 м    8/0 верхняя 
[Ci fib]
+5.3 -6.4 43 +5  1023.9  -1.3  747  296    +16       
15 25.04.17 150 (ЮВ) 20000 м    6/0 верхняя 
[Ci fib]
+0.3 -2.4 82 1024.9  0.5  748  301           
18 25.04.17 110 (В) 20000 м    6/0 верхняя 
[Ci fib]
-0.6 -3.7 80 1024.4  -0.6  747  302           
21 25.04.17 130 (ЮВ) 20000 м    10/4 1000 м кучево-дожд., средняя 
[Cb cap|Ac As]
-0.4 -4.2 75 1022.7  -1.6  746  301           
00 26.04.17 130 (ЮВ) 20000 м    10/4 1000 м кучево-дожд., верхняя 
[Cb cap|Ci fib]
+1.5 -4 67 1021.7  -0.8  745  299  -1.1         
03 26.04.17 тихо ()   20000 м    10/3 1000 м кучево-дожд., верхняя 
[Cb cap|Ci fib]
+7.3 -2.5 50 +7  1019.2  -1.8  744  292           
06 26.04.17 290 (З) 8-10{17}  20000 м    10/3 1000 м кучево-дожд., верхняя 
[Cb cap|Ci fib]
+13.7 -2.8 32 +12  1017.1  -1.5  743  285           
09 26.04.17 320 (СЗ) 6-10{14}  20000 м    10/3 1000 м кучево-дожд., средняя 
[Cb cap|Ac As]
+12.1 -6 28 +11  1017  -0.2  743  287           
12 26.04.17 300 (СЗ) 6{14}  20000 м    10/3 1000 м кучево-дожд., средняя 
[Cb cap|Ac As]
+11.3 -5.8 30 +10  1016.9  -0.2  743  288    +17.3       
15 26.04.17 110 (В) 20000 м    8/0 средняя, верхняя 
[Ac trans|Ci fib]
+5.3 -4.3 50 +6  1017.4  -0.1  742  294           
18 26.04.17 тихо ()   20000 м    10/4 1000 м кучево-дожд., средняя, верхняя 
[Cb cap|Ac trans|Ci fib]
+2.5 -2.1 72 +3  1016.5  -1.1  742  296           
21 26.04.17 тихо ()   20000 м    10/5 1000 м кучево-дожд., средняя, верхняя 
[Cb cap|Ac trans|Ci fib]
+2 -1.4 78 +2  1015.5  -1  741  296           
00 27.04.17 340 (С) 20000 м    8/3 1000 м кучево-дожд., средняя, верхняя 
[Cb cap|Ac trans|Ci fib]
+10.9 +0.4 48 +11  1013.1  -1.5  740  287  +1.7         
03 27.04.17 070 (В) 20000 м    5/3 1000 м кучево-дожд., средняя 
[Cb cap|Ac trans]
+12.8 +0.7 43 +13  1010.1  -2.5  738  284           
06 27.04.17 330 (СЗ) 6{10}  20000 м    3/3 1000 м 
[Cu med, cong]
+16.2 +0.2 34 +16  1007.1  -2.9  736  280           
Время (UTC), дата Ветер
(°,м/с) 
Видим.   Явления Облачность Т
(°С)
Тd
(°С)
f(%) Тe
(°С)
Pmin
(гПа)
dP
(гПа)
Po
(мм)
O2
(г/м3)
Тmin Tmax R s Состояние
почвы

Для получения пояснительной информации подведите курсор к названию столбца.

ПОГОДА в Маме - архив

Всё, что Вы хотите узнать о погоде в Маме - удобно и подробно!

Выберите нужную дату (начиная с 1 января 2015* года) и нажмите кнопку "Найти".
Будут отображены архивные сводки погоды по пункту Мама, начиная с указанной даты.


Отображать данные в формате CSV (для использования в таблицах Excel)


Внимание! Наш архив погоды предназначен исключительно для личного некоммерческого использования в познавательных целях. Если Вам необходимы официальные справки о состоянии погоды (для производственных, юридических, коммерческих и т.п. целей), обращайтесь в органы Росгидромета.

*Примечание: данная дата относится к архиву по метеостанциям СССР (Россия, СНГ, Балтия).
Архив по метеостанциям Зарубежной Европы и Азии (кроме Китая) хранится 10 дней, по другим регионам земного шара (Китай, Африка, Америка, Австралия, Океания) - 1 день.

Мама - район местоположения метеостанции


Название, широта, долгота, высота метеостанции:
Мама 58.3°ш. 112.9°д. 224 м над ур. моря [Российская Федерация]

Дополнительная информация

В oтличие oт бoльшинства пoгoдных сайтoв мы публикуем пoдрoбную метеoинфoрмацию в детальнoм прoфессиoнальнoм фoрмате.

Характеристики температуры и влажнoсти вoздуха измеряются на высoте 2 м в тени вдали oт зданий и деревьев.
Скoрoсть ветра измеряется на высoте 10 м (на урoвне рoста челoвека скoрoсть ветра ниже в 1.5-2 раза). Если метеoстанция нахoдится в гoрoде или в лесу, тo скoрoсть ветра занижена на 2-4 м/с пo сравнению с oткрытым местoм. Скoрoсть ветра над акватoриями крупных рек и oзёр, а также на вершинах хoлмoв на 2-5 м/с выше, чем в oбычных услoвиях.
Атмoсфернoе давление в разных тoчках местнoсти мoжет значительнo oтличаться oт давления на метеoстанции, в зависимoсти oт услoвий рельефа (при пoдъёме на 10 м давление пoнижается примернo на 1 мм рт.ст.).